User: anonymous   Login
Location: Brno
(49.2000°N, 16.6330°E)
Time: 04:18:12
(UTC+01:00)
Language:

Cosmos 1603 - Orbit

View from above orbital plane
View from above orbital plane
View from above satellite
View from above satellite

Ground track
Ground track

The orbit data is extracted from the following two-line orbital elements,

1 15333U 84106A   14353.56831700  .00000317  00000-0  19171-3 0  1557
2 15333 071.0245 199.0615 0018902 158.5382 267.5927 14.13964518559547
Epoch (UTC): 19 December 2014 13:38:22
Eccentricity: 0.0018902
inclination: 71.0245°
perigee height: 832 km
apogee height: 859 km
right ascension of ascending node: 199.0615°
argument of perigee: 158.5382°
revolutions per day: 14.13964518
mean anomaly at epoch: 267.5927°
orbit number at epoch: 55954

The dashed part of the orbit path shows where the satellite is in the earth's shadow,  

DLR